Kalispell, MT

4:57 AM MDT on June 24, 2017 (GMT -0600)
Glacier Park International

Weather History for KGPI - May, 2014

Change the Weather History Date:

Sunday, May 4, 2014

  Actual Average Record
Temperature  
Mean Temperature 49 °F 48 °F  
Max Temperature 59 °F 62 °F 81 °F (1897)
Min Temperature 39 °F 35 °F 22 °F (1963)
Degree Days  
Heating Degree Days 16 17  
Month to date heating degree days 52 69  
Since 1 July heating degree days 7602 7480  
Cooling Degree Days 0 0  
Month to date cooling degree days 0 0  
Year to date cooling degree days 0 0  
Moisture  
Dew Point 38 °F    
Average Humidity 65    
Maximum Humidity 92    
Minimum Humidity 38    
Precipitation  
Precipitation 0.02 in 0.04 in 1.34 in (1986)
Month to date precipitation 0.12 0.18  
Year to date precipitation 6.17 4.81  
Snow  
Snow 0.00 in - - ()
Month to date snowfall 0.0  
Year to date snowfall 38.2  
Since 1 July snowfall 71.7  
Snow Depth 0.00 in    
Sea Level Pressure  
Sea Level Pressure 29.81 in    
Wind  
Wind Speed 8 mph (ESE)    
Max Wind Speed 22 mph    
Max Gust Speed 30 mph    
Visibility 10 miles    
Events Rain    
T = Trace of Precipitation, MM = Missing Value Source: NWS Daily Summary

Daily Weather History Graph

Daily Weather History Graph

Search for Another Location

Airport or City:

Trip Planner

Search our weather history database for the weather conditions in past years. The results will help you decide how hot, cold, wet, or windy it might be!

Date:

Astronomy

May. 04, 2014 Rise Set
Actual Time 6:12 AM MDT 8:55 PM MDT
Civil Twilight 5:37 AM MDT 9:31 PM MDT
Nautical Twilight 4:52 AM MDT 10:16 PM MDT
Astronomical Twilight 3:59 AM MDT 11:10 PM MDT
Moon 10:39 AM MDT (5/4) 1:05 AM MDT (5/4)
Length of Visible Light 15h 53m
Length of Day
14h 42m
Waxing Crescent, 28% of the Moon is Illuminated
May 4
Waxing Crescent
May 6
First Quarter
May 14
Full
May 21
Last Quarter
May 28
New

Hourly Weather History & Observations

Time (MDT) Temp. Windchill Dew Point Humidity Pressure Visibility Wind Dir Wind Speed Gust Speed Precip Events Conditions
12:17 AM 41.0 °F 37.1 °F 37.0 °F 86% 29.80 in 10.0 mi NNE 5.8 mph - N/A   Overcast
12:55 AM 41.0 °F 39.0 °F 37.0 °F 86% 29.84 in 10.0 mi NNE 3.5 mph - N/A   Mostly Cloudy
1:55 AM 39.9 °F 35.1 °F 35.1 °F 83% 29.83 in 10.0 mi NNE 6.9 mph - N/A   Mostly Cloudy
2:55 AM 39.0 °F 34.0 °F 35.1 °F 86% 29.82 in 10.0 mi NNE 6.9 mph - N/A   Overcast
3:55 AM 39.9 °F 35.1 °F 35.1 °F 83% 29.81 in 10.0 mi NNE 6.9 mph - N/A   Overcast
4:31 AM 39.0 °F 36.8 °F 36.0 °F 89% 29.77 in 10.0 mi North 3.5 mph - 0.00 in   Overcast
4:55 AM 39.9 °F 35.1 °F 36.0 °F 86% 29.80 in 10.0 mi NE 6.9 mph - 0.00 in   Overcast
5:55 AM 39.9 °F 35.8 °F 36.0 °F 86% 29.80 in 10.0 mi NNE 5.8 mph - N/A   Overcast
6:06 AM 39.0 °F 34.0 °F 36.0 °F 89% 29.77 in 10.0 mi NNE 6.9 mph - N/A   Overcast
6:55 AM 39.9 °F 37.8 °F 37.0 °F 89% 29.81 in 10.0 mi NNE 3.5 mph - 0.00 in   Overcast
7:13 AM 39.9 °F 37.8 °F 37.0 °F 89% 29.78 in 10.0 mi NNE 3.5 mph - 0.00 in Rain Light Rain
7:55 AM 41.0 °F 38.0 °F 37.0 °F 86% 29.81 in 10.0 mi ENE 4.6 mph - 0.00 in   Overcast
8:16 AM 42.1 °F 39.2 °F 37.9 °F 85% 29.78 in 10.0 mi NNE 4.6 mph - N/A   Overcast
8:55 AM 43.0 °F 41.3 °F 39.9 °F 89% 29.83 in 10.0 mi ENE 3.5 mph - 0.00 in   Overcast
9:55 AM 44.1 °F 41.5 °F 41.0 °F 89% 29.83 in 8.0 mi South 4.6 mph - 0.01 in Rain Light Rain
10:55 AM 46.9 °F - 44.1 °F 90% 29.82 in 10.0 mi South 10.4 mph - 0.01 in   Overcast
11:33 AM 48.0 °F - 44.1 °F 86% 29.80 in 10.0 mi SSE 12.7 mph - N/A   Overcast
11:36 AM 48.0 °F - 44.1 °F 86% 29.80 in 10.0 mi SSE 13.8 mph - N/A   Overcast
11:55 AM 48.9 °F - 44.1 °F 83% 29.83 in 10.0 mi SSE 17.3 mph - N/A   Mostly Cloudy
12:55 PM 51.1 °F - 44.1 °F 77% 29.83 in 10.0 mi SSE 18.4 mph - 0.00 in   Scattered Clouds
1:55 PM 52.0 °F - 41.0 °F 66% 29.81 in 10.0 mi SE 21.9 mph 29.9 mph N/A   Scattered Clouds
2:55 PM 53.1 °F - 37.9 °F 57% 29.81 in 10.0 mi SSE 12.7 mph - N/A   Mostly Cloudy
3:55 PM 55.9 °F - 36.0 °F 47% 29.79 in 10.0 mi South 8.1 mph - N/A   Overcast
4:55 PM 57.0 °F - 37.0 °F 47% 29.78 in 10.0 mi South 15.0 mph - N/A   Mostly Cloudy
5:55 PM 57.0 °F - 34.0 °F 42% 29.79 in 10.0 mi SSW 17.3 mph 26.5 mph N/A   Partly Cloudy
6:55 PM 55.9 °F - 30.9 °F 39% 29.79 in 10.0 mi SW 11.5 mph - N/A   Clear
7:55 PM 54.0 °F - 33.1 °F 45% 29.80 in 10.0 mi SSW 5.8 mph - N/A   Overcast
8:55 PM 51.1 °F - 34.0 °F 52% 29.81 in 10.0 mi Calm Calm - N/A   Mostly Cloudy
9:55 PM 48.0 °F - 36.0 °F 63% 29.83 in 10.0 mi Calm Calm - N/A   Clear
10:55 PM 46.9 °F - 37.0 °F 68% 29.83 in 10.0 mi South 3.5 mph - N/A   Overcast
11:55 PM 48.9 °F - 35.1 °F 59% 29.83 in 10.0 mi South 4.6 mph - N/A   Scattered Clouds